TimeMST,TemperatureF,Dew PointF,Humidity,Sea Level PressureIn,VisibilityMPH,Wind Direction,Wind SpeedMPH,Gust SpeedMPH,PrecipitationIn,Events,Conditions,WindDirDegrees,DateUTC
12:53 AM,23.0,12.9,65,30.14,10.0,SE,3.5,-,N/A,,Clear,130,2013-01-24 07:53:00
1:53 AM,24.1,12.0,60,30.11,10.0,SW,8.1,-,N/A,,Clear,220,2013-01-24 08:53:00
2:53 AM,27.0,10.9,51,30.11,10.0,SSE,3.5,-,N/A,,Clear,150,2013-01-24 09:53:00
3:53 AM,25.0,10.9,55,30.09,10.0,Calm,Calm,-,N/A,,Clear,0,2013-01-24 10:53:00
4:53 AM,19.9,10.0,65,30.12,10.0,Calm,Calm,-,N/A,,Clear,0,2013-01-24 11:53:00
5:53 AM,16.0,10.0,77,30.17,10.0,Calm,Calm,-,N/A,,Partly Cloudy,0,2013-01-24 12:53:00
6:53 AM,21.9,10.9,63,30.13,10.0,Calm,Calm,-,N/A,,Clear,0,2013-01-24 13:53:00
7:53 AM,21.9,12.0,66,30.13,10.0,Calm,Calm,-,N/A,,Clear,0,2013-01-24 14:53:00
8:53 AM,25.0,15.1,66,30.14,10.0,SSW,4.6,-,N/A,,Clear,210,2013-01-24 15:53:00
9:53 AM,28.0,16.0,61,30.12,10.0,WSW,4.6,-,N/A,,Clear,240,2013-01-24 16:53:00
10:53 AM,39.0,21.0,49,30.08,10.0,South,3.5,-,N/A,,Clear,190,2013-01-24 17:53:00
11:53 AM,37.9,21.0,51,30.07,10.0,SSW,3.5,-,N/A,,Clear,210,2013-01-24 18:53:00
12:53 PM,39.0,23.0,53,30.06,10.0,SW,4.6,-,N/A,,Clear,230,2013-01-24 19:53:00
1:53 PM,41.0,23.0,49,30.04,10.0,WSW,6.9,-,N/A,,Clear,250,2013-01-24 20:53:00
2:53 PM,45.0,25.0,46,30.04,10.0,NW,9.2,-,N/A,,Clear,310,2013-01-24 21:53:00
3:53 PM,44.1,26.1,49,30.05,10.0,West,12.7,-,N/A,,Clear,260,2013-01-24 22:53:00
4:53 PM,43.0,27.0,53,30.10,10.0,WNW,10.4,-,N/A,,Clear,300,2013-01-24 23:53:00
5:53 PM,41.0,24.1,51,30.14,10.0,WNW,20.7,-,N/A,,Clear,290,2013-01-25 00:53:00
6:53 PM,39.9,21.9,49,30.16,10.0,NW,17.3,-,N/A,,Clear,310,2013-01-25 01:53:00
7:53 PM,37.9,21.9,53,30.19,10.0,NW,15.0,-,N/A,,Clear,310,2013-01-25 02:53:00
8:53 PM,37.0,21.9,54,30.19,10.0,NW,16.1,-,N/A,,Clear,310,2013-01-25 03:53:00
9:53 PM,34.0,21.0,59,30.21,10.0,SW,8.1,-,N/A,,Clear,230,2013-01-25 04:53:00
10:53 PM,35.1,21.0,57,30.17,10.0,West,15.0,20.7,N/A,,Clear,280,2013-01-25 05:53:00
11:53 PM,28.9,19.9,69,30.19,10.0,West,9.2,-,N/A,,Clear,260,2013-01-25 06:53:00